FW1492 Weather Reports


Display with metric or nautical units.
time (UTC)temp
F
wind
direction
speed
MPH
gust
MPH
rain 1hr
in
rain 24hr
in
rain mn
in
humidity
%
barometer
mb
20260503020025 45 20 3.0 8.0 0.00 0.11 0.11 53 1013.4
20260503014538 46 319 2.0 4.0 0.00 0.11 0.11 54 1013.4
20260503013025 46 36 1.0 4.0 0.00 0.11 0.11 53 1013.4
20260503011523 46 29 1.0 6.0 0.00 0.11 0.11 53 1013.3
20260503010023 46 16 0.0 4.0 0.00 0.11 0.11 54 1013.1
20260503004527 47 48 0.0 3.0 0.00 0.11 0.11 53 1012.8
20260503003021 47 32 0.0 2.0 0.00 0.11 0.11 52 1012.6
20260503001524 48 11 1.0 5.0 0.00 0.11 0.11 50 1012.6
20260503000020 48 40 2.0 5.0 0.00 0.11 0.11 49 1012.4
20260502234518 49 58 0.0 5.0 0.00 0.11 0.11 49 1012.4
20260502233019 49 346 3.0 6.0 0.00 0.11 0.11 46 1012.3
20260502231518 49 340 2.0 6.0 0.00 0.11 0.11 46 1012.2
20260502230017 50 12 3.0 9.0 0.00 0.11 0.11 46 1012.3
20260502224516 50 3 4.0 8.0 0.00 0.11 0.11 46 1012.2
20260502223016 51 327 4.0 7.0 0.00 0.11 0.11 45 1011.9
20260502221516 51 300 3.0 8.0 0.00 0.11 0.11 46 1012.1
20260502220016 51 8 3.0 9.0 0.00 0.11 0.11 46 1012.0
20260502214514 51 321 2.0 7.0 0.00 0.11 0.11 47 1011.8
20260502213014 51 30 2.0 9.0 0.00 0.11 0.11 45 1011.7
20260502211529 52 352 2.0 9.0 0.00 0.11 0.11 46 1011.6
20260502210016 52 25 1.0 4.0 0.00 0.11 0.11 46 1011.4
20260502204511 53 76 4.0 8.0 0.00 0.11 0.11 45 1011.4
20260502203013 53 316 4.0 10.0 0.00 0.11 0.11 45 1011.5
20260502201510 54 28 4.0 10.0 0.00 0.11 0.11 43 1011.6
20260502200009 53 309 3.0 10.0 0.00 0.11 0.11 45 1011.7
20260502194506 52 70 1.0 8.0 0.00 0.11 0.11 47 1011.8
20260502193005 53 354 4.0 11.0 0.00 0.11 0.11 45 1012.2
20260502191505 54 266 2.0 10.0 0.00 0.11 0.11 45 1012.3
20260502190101 54 306 2.0 8.0 0.00 0.11 0.11 46 1012.4
20260502184601 53 314 2.0 10.0 0.00 0.11 0.11 49 1012.6
20260502183107 53 302 1.0 6.0 0.00 0.11 0.11 48 1012.7
20260502181557 52 32 3.0 7.0 0.00 0.11 0.11 49 1013.0
20260502163050 50 311 4.0 17.0 0.00 0.11 0.11 57 1013.4
20260502161543 49 70 2.0 11.0 0.00 0.11 0.11 61 1013.5
20260502151539 47 332 2.0 8.0 0.00 0.11 0.11 71 1013.7
20260502123025 41 323 2.0 8.0 0.00 0.11 0.11 94 1013.9
20260502121523 41 23 5.0 13.0 0.00 0.11 0.11 94 1013.5
20260502114519 42 284 2.0 6.0 0.00 0.11 0.11 95 1013.6
20260502113018 43 334 1.0 7.0 0.00 0.11 0.11 95 1013.3
20260502111515 43 309 1.0 4.0 0.00 0.11 0.11 95 1013.2
20260502110015 43 281 0.0 3.0 0.00 0.11 0.11 95 1013.4
20260502104521 42 289 0.0 2.0 0.00 0.11 0.11 95 1013.2
20260502103015 42 319 0.0 2.0 0.00 0.11 0.11 95 1012.7
20260502101530 42 280 0.0 1.0 0.00 0.11 0.11 94 1012.6
20260502091506 43 279 0.0 1.0 0.07 0.11 0.11 93 1012.1
20260502080109 44 9 0.0 3.0 0.04 0.04 0.04 92 1012.6
20260502070100 45 23 1.0 4.0 0.00 0.00 0.00 90 1012.7
20260502064552 45 280 1.0 6.0 0.00 0.00 0.00 90 1012.9
20260502063057 45 311 2.0 6.0 0.00 0.00 0.00 89 1013.3
20260502061545 46 320 2.0 5.0 0.00 0.00 0.00 88 1013.2
20260502060044 46 351 1.0 4.0 0.00 0.00 0.00 87 1013.3
20260502054543 46 8 1.0 4.0 0.00 0.00 0.00 86 1013.3
20260502053040 46 331 2.0 4.0 0.00 0.00 0.00 85 1013.3
20260502051551 47 345 0.0 1.0 0.00 0.00 0.00 83 1013.2
20260502050037 47 343 0.0 0.0 0.00 0.00 0.00 82 1013.2
20260502044534 47 343 0.0 0.0 0.00 0.00 0.00 80 1013.4
20260502043031 48 343 0.0 0.0 0.00 0.00 0.00 77 1013.1
20260502041528 49 343 0.0 0.0 0.00 0.00 0.00 74 1013.1
20260502040028 49 343 0.0 0.0 0.00 0.00 0.00 73 1012.9
20260502034528 49 343 0.0 1.0 0.00 0.00 0.00 72 1012.8
20260502033025 50 1 0.0 1.0 0.00 0.00 0.00 71 1012.8
20260502031524 50 328 0.0 2.0 0.00 0.00 0.00 72 1012.9
20260502030024 50 330 0.0 3.0 0.00 0.00 0.00 71 1012.9
20260502024523 50 327 0.0 3.0 0.00 0.00 0.00 71 1013.1
20260502023022 50 319 1.0 0.0 0.00 0.00 0.00 71 1013.3
20260502021522 50 339 0.0 3.0 0.00 0.00 0.00 71 1013.3